Mekoryuk, AK

12:01 PM AKDT on August 21, 2017 (GMT -0800)
Mekoryuk

Weather History for PAMY - October, 2013

Change the Weather History Date:

Monday, October 21, 2013

  Actual Average Record
Temperature  
Mean Temperature 36 °F -  
Max Temperature 42 °F 33 °F 44 °F (2006)
Min Temperature 30 °F 26 °F 15 °F (1983)
Degree Days  
Heating Degree Days 29    
Moisture  
Dew Point 28 °F    
Average Humidity 72    
Maximum Humidity 81    
Minimum Humidity 61    
Precipitation  
Precipitation 0.00 in - - ()
Sea Level Pressure  
Sea Level Pressure 29.63 in    
Wind  
Wind Speed 12 mph (SSW)    
Max Wind Speed 25 mph    
Max Gust Speed 32 mph    
Visibility 10 miles    
Events      
Averages and records for this station are not official NWS values.
T = Trace of Precipitation, MM = Missing Value Source: NWS Daily Summary

Daily Weather History Graph

Daily Weather History Graph

Search for Another Location

Airport or City:

Trip Planner

Search our weather history database for the weather conditions in past years. The results will help you decide how hot, cold, wet, or windy it might be!

Date:

Astronomy

Oct. 21, 2013 Rise Set
Actual Time 10:01 AM AKDT 7:36 PM AKDT
Civil Twilight 9:18 AM AKDT 8:19 PM AKDT
Nautical Twilight 8:29 AM AKDT 9:08 PM AKDT
Astronomical Twilight 7:40 AM AKDT 9:57 PM AKDT
Moon 8:55 PM AKDT 1:30 PM AKDT
Length of Visible Light 11h 01m
Length of Day
9h 34m
Waning Gibbous, 92% of the Moon is Illuminated
Oct 21
Waning Gibbous
Oct 26
Last Quarter
Nov 3
New
Nov 9
First Quarter
Nov 17
Full

Hourly Weather History & Observations

Time (AKDT) Temp. Windchill Dew Point Humidity Pressure Visibility Wind Dir Wind Speed Gust Speed Precip Events Conditions
12:16 AM 35.6 °F 29.2 °F 28.4 °F 75% 29.49 in 8.0 mi South 8.1 mph - N/A   Overcast
12:36 AM 35.6 °F 28.6 °F 30.2 °F 81% 29.49 in 10.0 mi South 9.2 mph - N/A   Mostly Cloudy
12:56 AM 37.4 °F 28.5 °F 28.4 °F 70% 29.49 in 10.0 mi SSW 15.0 mph - N/A   Mostly Cloudy
1:16 AM 37.4 °F 30.8 °F 28.4 °F 70% 29.50 in 10.0 mi SSW 9.2 mph - N/A   Mostly Cloudy
1:36 AM 35.6 °F 29.2 °F 28.4 °F 75% 29.50 in 10.0 mi South 8.1 mph - N/A   Mostly Cloudy
1:56 AM 35.6 °F 28.0 °F 28.4 °F 75% 29.50 in 10.0 mi South 10.4 mph - N/A   Overcast
2:16 AM 35.6 °F 27.5 °F 28.4 °F 75% 29.51 in 10.0 mi South 11.5 mph - N/A   Scattered Clouds
2:36 AM 35.6 °F 27.5 °F 28.4 °F 75% 29.51 in 10.0 mi South 11.5 mph - N/A   Scattered Clouds
2:56 AM 35.6 °F 28.6 °F 28.4 °F 75% 29.52 in 10.0 mi South 9.2 mph - N/A   Overcast
3:16 AM 35.6 °F 29.2 °F 28.4 °F 75% 29.52 in 10.0 mi South 8.1 mph - N/A   Mostly Cloudy
3:36 AM 35.6 °F 28.6 °F 26.6 °F 70% 29.52 in 10.0 mi South 9.2 mph - N/A   Partly Cloudy
3:56 AM 35.6 °F 28.0 °F 28.4 °F 75% 29.52 in 10.0 mi South 10.4 mph - N/A   Partly Cloudy
4:16 AM 33.8 °F 27.0 °F 26.6 °F 75% 29.53 in 10.0 mi South 8.1 mph - N/A   Clear
4:36 AM 35.6 °F 24.5 °F 26.6 °F 70% 29.53 in 10.0 mi SSW 20.7 mph 24.2 mph N/A   Mostly Cloudy
4:56 AM 35.6 °F 28.0 °F 28.4 °F 75% 29.53 in 10.0 mi South 10.4 mph - N/A   Overcast
5:16 AM 33.8 °F 27.0 °F 26.6 °F 75% 29.54 in 10.0 mi South 8.1 mph - N/A   Mostly Cloudy
5:36 AM 35.6 °F 28.0 °F 28.4 °F 75% 29.54 in 10.0 mi SSW 10.4 mph - N/A   Scattered Clouds
5:56 AM 35.6 °F 28.0 °F 28.4 °F 75% 29.54 in 10.0 mi SSW 10.4 mph - N/A   Partly Cloudy
6:16 AM 35.6 °F 28.6 °F 26.6 °F 70% 29.54 in 10.0 mi South 9.2 mph - N/A   Clear
6:36 AM 35.6 °F 28.0 °F 26.6 °F 70% 29.54 in 10.0 mi SSW 10.4 mph - N/A   Partly Cloudy
6:56 AM 35.6 °F 28.0 °F 28.4 °F 75% 29.54 in 10.0 mi SSW 10.4 mph - N/A   Partly Cloudy
7:16 AM 35.6 °F 26.2 °F 26.6 °F 70% 29.55 in 10.0 mi SSW 15.0 mph - N/A   Clear
7:36 AM 35.6 °F 28.0 °F 26.6 °F 70% 29.56 in 10.0 mi South 10.4 mph - N/A   Clear
7:56 AM 33.8 °F 26.4 °F 26.6 °F 75% 29.56 in 10.0 mi SSW 9.2 mph - N/A   Partly Cloudy
8:16 AM 33.8 °F 26.4 °F 26.6 °F 75% 29.56 in 10.0 mi South 9.2 mph - N/A   Partly Cloudy
8:36 AM 33.8 °F 25.8 °F 26.6 °F 75% 29.57 in 10.0 mi South 10.4 mph - N/A   Partly Cloudy
8:56 AM 35.6 °F 28.0 °F 26.6 °F 70% 29.57 in 10.0 mi South 10.4 mph - N/A   Partly Cloudy
9:16 AM 33.8 °F 25.3 °F 26.6 °F 75% 29.57 in 10.0 mi South 11.5 mph - N/A   Clear
9:36 AM 35.6 °F 27.1 °F 26.6 °F 70% 29.58 in 10.0 mi South 12.7 mph - N/A   Clear
9:56 AM 33.8 °F 25.3 °F 28.4 °F 81% 29.58 in 10.0 mi South 11.5 mph - N/A   Clear
10:16 AM 35.6 °F 27.5 °F 28.4 °F 75% 29.59 in 10.0 mi South 11.5 mph - N/A   Partly Cloudy
10:36 AM 35.6 °F 28.0 °F 26.6 °F 70% 29.60 in 10.0 mi South 10.4 mph - N/A   Partly Cloudy
10:56 AM 35.6 °F 27.1 °F 28.4 °F 75% 29.60 in 10.0 mi South 12.7 mph - N/A   Scattered Clouds
11:16 AM 35.6 °F 26.2 °F 28.4 °F 75% 29.61 in 10.0 mi SSW 15.0 mph 19.6 mph N/A   Scattered Clouds
11:36 AM 35.6 °F 25.9 °F 28.4 °F 75% 29.61 in 10.0 mi SSW 16.1 mph - N/A   Scattered Clouds
11:56 AM 37.4 °F 28.2 °F 28.4 °F 70% 29.62 in 10.0 mi SSW 16.1 mph 21.9 mph N/A   Clear
12:16 PM 35.6 °F 25.5 °F 28.4 °F 75% 29.62 in 10.0 mi SSW 17.3 mph 21.9 mph N/A   Partly Cloudy
12:36 PM 37.4 °F 28.2 °F 28.4 °F 70% 29.62 in 10.0 mi SSW 16.1 mph 21.9 mph N/A   Partly Cloudy
12:56 PM 37.4 °F 27.2 °F 28.4 °F 70% 29.63 in 10.0 mi SSW 19.6 mph 28.8 mph N/A   Partly Cloudy
1:16 PM 39.2 °F 28.5 °F 30.2 °F 70% 29.64 in 10.0 mi SSW 24.2 mph 32.2 mph N/A   Scattered Clouds
1:36 PM 39.2 °F 28.5 °F 30.2 °F 70% 29.64 in 8.0 mi SSW 24.2 mph 28.8 mph N/A   Scattered Clouds
1:56 PM 39.2 °F 29.3 °F 30.2 °F 70% 29.65 in 9.0 mi SSW 20.7 mph - N/A   Clear
2:16 PM 41.0 °F 31.9 °F 30.2 °F 65% 29.65 in 9.0 mi SW 19.6 mph - N/A   Scattered Clouds
2:36 PM 39.2 °F 29.0 °F 30.2 °F 70% 29.66 in 5.0 mi SW 21.9 mph 28.8 mph N/A   Overcast
2:56 PM 39.2 °F 29.6 °F 30.2 °F 70% 29.66 in 7.0 mi SW 19.6 mph 26.5 mph N/A   Mostly Cloudy
3:16 PM 42.8 °F 33.3 °F 30.2 °F 61% 29.66 in 9.0 mi SSW 24.2 mph 28.8 mph N/A   Partly Cloudy
3:36 PM 42.8 °F 33.1 °F 30.2 °F 61% 29.66 in 10.0 mi SW 25.3 mph 29.9 mph N/A   Scattered Clouds
3:56 PM 41.0 °F 31.9 °F 28.4 °F 61% 29.67 in 10.0 mi SW 19.6 mph 27.6 mph N/A   Scattered Clouds
4:16 PM 39.2 °F 29.6 °F 30.2 °F 70% 29.68 in 8.0 mi SW 19.6 mph 24.2 mph N/A   Mostly Cloudy
4:36 PM 39.2 °F 28.7 °F 30.2 °F 70% 29.68 in 10.0 mi SSW 23.0 mph - N/A   Scattered Clouds
4:56 PM 41.0 °F 31.9 °F 28.4 °F 61% 29.69 in 10.0 mi SW 19.6 mph 23.0 mph N/A   Partly Cloudy
5:16 PM 39.2 °F 29.3 °F 28.4 °F 65% 29.69 in 9.0 mi SW 20.7 mph 29.9 mph N/A   Partly Cloudy
5:36 PM 39.2 °F 30.5 °F 28.4 °F 65% 29.70 in 10.0 mi SSW 16.1 mph 28.8 mph N/A   Mostly Cloudy
5:56 PM 39.2 °F 30.5 °F 30.2 °F 70% 29.70 in 9.0 mi SW 16.1 mph 20.7 mph N/A   Scattered Clouds
6:16 PM 39.2 °F 30.5 °F 28.4 °F 65% 29.71 in 9.0 mi SSW 16.1 mph 24.2 mph N/A   Partly Cloudy
6:36 PM 37.4 °F 28.9 °F 28.4 °F 70% 29.71 in 9.0 mi SW 13.8 mph 21.9 mph N/A   Scattered Clouds
6:56 PM 37.4 °F 29.8 °F 28.4 °F 70% 29.72 in 9.0 mi SW 11.5 mph - N/A   Partly Cloudy
7:16 PM 35.6 °F 26.6 °F 26.6 °F 70% 29.73 in 10.0 mi SSW 13.8 mph 20.7 mph N/A   Clear
7:36 PM 35.6 °F 27.5 °F 26.6 °F 70% 29.73 in 10.0 mi SSW 11.5 mph - N/A   Clear
7:56 PM 33.8 °F 24.3 °F 26.6 °F 75% 29.74 in 10.0 mi SSW 13.8 mph - N/A   Clear
8:16 PM 35.6 °F 27.5 °F 26.6 °F 70% 29.75 in 10.0 mi SSW 11.5 mph - N/A   Clear
8:36 PM 33.8 °F 27.0 °F 26.6 °F 75% 29.76 in 10.0 mi SSW 8.1 mph - N/A   Clear
8:56 PM 32.0 °F 24.8 °F 26.6 °F 80% 29.76 in 10.0 mi South 8.1 mph - N/A   Clear
9:16 PM 32.0 °F 23.6 °F 24.8 °F 75% 29.77 in 10.0 mi South 10.4 mph - N/A   Clear
9:36 PM 33.8 °F 24.8 °F 26.6 °F 75% 29.78 in 10.0 mi SSW 12.7 mph - N/A   Partly Cloudy
9:56 PM 33.8 °F 25.8 °F 26.6 °F 75% 29.78 in 10.0 mi South 10.4 mph - N/A   Mostly Cloudy
10:16 PM 33.8 °F 26.4 °F 26.6 °F 75% 29.79 in 10.0 mi South 9.2 mph - N/A   Mostly Cloudy
10:36 PM 33.8 °F 25.8 °F 26.6 °F 75% 29.80 in 10.0 mi South 10.4 mph - N/A   Partly Cloudy
10:56 PM 33.8 °F 26.4 °F 26.6 °F 75% 29.80 in 10.0 mi SSW 9.2 mph - N/A   Clear
11:16 PM 33.8 °F 27.0 °F 26.6 °F 75% 29.81 in 10.0 mi South 8.1 mph - N/A   Clear
11:36 PM 30.2 °F 21.9 °F 24.8 °F 80% 29.82 in 10.0 mi South 9.2 mph - N/A   Partly Cloudy
11:56 PM 33.8 °F 25.8 °F 24.8 °F 70% 29.82 in 10.0 mi South 10.4 mph - N/A   Partly Cloudy